Location: Blankensee
(53.5126°N, 14.3055°E)
Time: 18:22:00
(UTC+00:00)

NOSS 3-1 (A) - Pass Details

Date: 08 August 2020
Orbit: 747 x 1465 km, 63.4° (Epoch: 17 September)

Event Time Altitude Azimuth Distance (km) Brightness Sun altitude
Exits shadow 02:17:01 - 196° (SSW) 2,558 5.2 -9.6°
Reaches altitude 10° 02:17:26 10° 195° (SSW) 2,408 5.1 -9.5°
Maximum altitude 02:22:41 46° 123° (ESE) 1,191 4.1 -9.0°
Drops below altitude 10° 02:28:50 10° 53° (NE) 2,817 7.6 -8.3°
Sets 02:31:46 0° 48° (NE) 3,891 9.3 -8.0°
